Miscellaneous Local Product
Issued by NWS Hastings, NE

Home | Current Version | Previous Version | Graphics & Text | Print | Product List | Glossary On
Versions: 1 2 3 4 5 6 7 8 9 10 11 12 13 14 15 16 17 18 19 20 21 22 23 24 25 26 27 28 29 30 31 32 33 34 35 36 37 38 39 40 41 42 43 44 45 46 47 48 49 50
000
AXUS43 KGID 271302
MISGRI

GID CWA HOURLY WEATHER ROUNDUP
NATIONAL WEATHER SERVICE HASTINGS NE
800 AM CDT SUN JUL 27 2014

NOTE: "FAIR" INDICATES FEW OR NO CLOUDS BELOW 12,000 FEET WITH NO
SIGNIFICANT WEATHER AND/OR OBSTRUCTIONS TO VISIBILITY.

...SOUTH CENTRAL NEBRASKA...

CITY           SKY/WX    TMP DP  RH WIND       PRES   REMARKS
GRAND ISLAND   SUNNY     66  58  75 W7        30.16R
HASTINGS       MOSUNNY   67  58  72 NW6       30.16R
KEARNEY        SUNNY     64  55  72 W5        30.18R
ORD            SUNNY     63  54  72 W9        30.16R
YORK           SUNNY     64  63  94 NW7       30.13R
AURORA         SUNNY     64  63  94 W3        30.14R
LEXINGTON      SUNNY     64  57  78 N5        30.20R
HOLDREGE       MOSUNNY   64  58  81 CALM      30.20R
HEBRON         MOSUNNY   71  60  69 CALM      30.13R

...NEBRASKA PANHANDLE...

CITY           SKY/WX    TMP DP  RH WIND       PRES   REMARKS
CHADRON        SUNNY     55  46  71 SW6       30.30R
ALLIANCE       SUNNY     58  47  66 N6        30.31R
SCOTTSBLUFF    MOSUNNY   61  51  70 CALM      30.33R
SIDNEY         SUNNY     64  50  60 NE12      30.32R

...WESTERN AND NORTH CENTRAL NEBRASKA...

CITY           SKY/WX    TMP DP  RH WIND       PRES   REMARKS
VALENTINE      SUNNY     67  48  50 N15       30.20R
AINSWORTH      SUNNY     60  51  72 NW7       30.19R
ONEILL         SUNNY     64  50  61 NW10      30.14R
BROKEN BOW     SUNNY     63  55  75 CALM      30.21R
IMPERIAL       SUNNY     64  57  78 NE5       30.27R
NORTH PLATTE   SUNNY     64  51  62 CALM      30.23R
MCCOOK         PTSUNNY   67  57  70 N13       30.22R

...EASTERN NEBRASKA...

CITY           SKY/WX    TMP DP  RH WIND       PRES   REMARKS
NORFOLK        SUNNY     66  55  67 NW9       30.09R
SO SIOUX CITY  SUNNY     65  57  75 NW7       30.03R
COLUMBUS       SUNNY     64  55  72 NW6       30.09R
ALBION         SUNNY     62  55  78 CALM      30.12R
OMAHA EPPLEY   SUNNY     69  62  78 N7        30.04R
OFFUTT AFB     SUNNY     70  67  89 W6        30.04R
MILLARD        SUNNY     70  59  68 NW7G16    30.05R
LINCOLN        SUNNY     72  59  63 W5        30.09R
NEBRASKA CITY  SUNNY     70  68  93 NW6       30.05R
BEATRICE       SUNNY     70  64  83 N5        30.09R
FALLS CITY     NOT AVBL

...NORTHERN KANSAS...

CITY           SKY/WX    TMP DP  RH WIND       PRES   REMARKS
GOODLAND       PTSUNNY   63  61  93 CALM      30.26R
HILL CITY      CLOUDY    69  64  84 N14       30.18R
NORTON         MOSUNNY   68  61  77 N5        30.19R
PHILLIPSBURG   SUNNY     70  63  78 NW5       30.16R
SMITH CENTER   SUNNY     68  63  83 N6        30.16R
HAYS           CLOUDY    72  66  83 N7        30.14R
RUSSELL        CLOUDY    73  70  90 NE7       30.10R
CONCORDIA      PTSUNNY   74  70  87 N8        30.11R
SALINA         PTSUNNY   78  73  84 N9        30.08R
TOPEKA         MOSUNNY   79  75  87 NW5       30.03R



USA.gov is the U.S. government's official web portal to all federal, state and local government web resources and services.